Regional Weather Roundup
Issued by NWS State College, PA

Home | Current Version | Previous Version | Graphics & Text | Print | Product List | Glossary On
Versions: 1 2 3 4 5 6 7 8 9 10 11 12 13 14 15 16 17 18 19 20 21 22 23 24 25 26 27 28 29 30 31 32 33 34 35 36 37 38 39 40 41 42 43 44 45 46 47 48 49 50
000
ASUS41 KCTP 240303
RWRCTP

REGIONAL WEATHER ROUNDUP
NATIONAL WEATHER SERVICE STATE COLLEGE PA
1000 PM EST SUN NOV 23 2014

Note: "fair" indicates few or no clouds below 12,000 feet with no
significant weather and/or obstructions to visibility.

* = STATION THAT DOES NOT REPORT PRECIPITATION /E.G. RAIN...SNOW...ETC/
    THUNDER OR FOG.

PAZ002>004-007>009-013>016-020>023-029>032-240400-
WESTERN PENNSYLVANIA

CITY           SKY/WX    TMP DP  RH WIND       PRES   REMARKS
ERIE           LGT RAIN  54  39  57 S25G33    29.59F
MEADVILLE      LGT RAIN  49  41  74 SE8       29.63F
FRANKLIN*      CLOUDY    48  39  71 SE14      29.69F
NEW CASTLE     LGT RAIN  51  47  86 SE12G18   29.62F
BEAVER COUNTY  NOT AVBL
BUTLER*        CLOUDY    50  45  81 E9        29.67F
PITTSBURGH INT LGT RAIN  53  47  79 SE12      29.62F
PITTSBURGH     LGT RAIN  54  45  71 SE16      29.64F
INDIANA*       CLOUDY    50  45  81 VRB5G22   29.76F HAZE
LATROBE        LGT RAIN  54  46  76 SE12G23   29.70F
WASHINGTON CO* CLOUDY    54  48  82 E7        29.62F
$$

PAZ004>006-010>012-017>019-024>028-033>037-041-042-045-046-049>053-240400-
CENTRAL PENNSYLVANIA

CITY           SKY/WX    TMP DP  RH WIND       PRES   REMARKS
BRADFORD       CLOUDY    47  34  60 SE17G29   29.75F
DUBOIS         LGT RAIN  50  41  71 SE17G29   29.74F
CLEARFIELD     LGT RAIN  50  41  71 S9G16     29.81F
JOHNSTOWN      LGT RAIN  44  39  82 SE20G33   29.75F
ALTOONA        LGT RAIN  49  43  80 SE14G22   29.84F
STATE COLLEGE  CLOUDY    51  38  63 SE8G17    29.85F
WILLIAMSPORT   CLOUDY    52  34  50 E10       29.91F
SELINSGROVE    CLOUDY    50  37  61 S6        29.93F
FT INDIANTOWN  CLOUDY    47  33  57 NE5       29.96F
CAPITAL CITY   CLOUDY    48  34  58 SE13      29.93F
HARRISBURG     CLOUDY    47  35  63 SE8       29.93F
YORK           CLOUDY    50  44  80 SE8       29.93F
$$

PAZ038>040-043-044-047-048-054-055-060>062-067>071-240400-
EASTERN PENNSYLVANIA

CITY           SKY/WX    TMP DP  RH WIND       PRES   REMARKS
SCRANTON       CLOUDY    51  36  56 VRB7      29.95F
MOUNT POCONO   CLOUDY    45  36  70 SE8       29.99F
ALLENTOWN      CLOUDY    47  30  51 E5        30.01F
QUAKERTOWN*    CLOUDY    45  34  65 CALM      30.01F
READING        CLOUDY    53  39  59 SE10      29.97F
LANCASTER      CLOUDY    48  40  73 SE7       29.96F
COATESVILLE    CLOUDY    48  46  93 SE6       29.98F
POTTSTOWN      CLOUDY    47  37  68 E5        30.01F
BLUE BELL      CLOUDY    50  43  76 CALM      30.00F
DOYLESTOWN     CLOUDY    47  40  76 VRB3      30.01F
WILLOW GROVE   NOT AVBL
NORTH PHILA    CLOUDY    50  39  66 E3        30.04F
PHILADELPHIA   CLOUDY    53  46  77 SE5       30.02F
$$


USA.gov is the U.S. government's official web portal to all federal, state and local government web resources and services.